Stations météo

Publicité
Mont-De-Marsan, France (7607): Température de l'air & dewpoint: 11.06.2019 16:00:00 - 17.06.2019 16:00:00 (CEST)Mont-De-Marsan, France (7607): Température de l'air 5cm: 11.06.2019 16:00:00 - 17.06.2019 16:00:00 (CEST)Mont-De-Marsan, France (7607): Température de l'air -20cm & Température de l'air -100cm: 11.06.2019 16:00:00 - 17.06.2019 16:00:00 (CEST)Mont-De-Marsan, France (7607): Vitesse du vent & gusts: 11.06.2019 16:00:00 - 17.06.2019 16:00:00 (CEST)Mont-De-Marsan, France (7607): Direction du vent: 11.06.2019 16:00:00 - 17.06.2019 16:00:00 (CEST)Mont-De-Marsan, France (7607): reduced air pressure: 11.06.2019 16:00:00 - 17.06.2019 16:00:00 (CEST)Mont-De-Marsan, France (7607): visibility: 11.06.2019 16:00:00 - 17.06.2019 16:00:00 (CEST)Mont-De-Marsan, France (7607): Ensoleillement: 11.06.2019 16:00:00 - 17.06.2019 16:00:00 (CEST)Mont-De-Marsan, France (7607): Quantités de précipitations: 11.06.2019 16:00:00 - 17.06.2019 16:00:00 (CEST)
Date & Time tt [°C] td [°C] tt 5cm [°C] tt -20cm [°C] tt -100cm [°C] ff [km/h] ff [knt] fx [km/h] fx [knt] dd ppp [hPa] vv [km] sd [min] rr [mm]
17.06.2019 16:00:00 29,0 12,0 34,9 21,9 18,2 13 7 24 13 ESE 1014,1 47 60 0,0
17.06.2019 15:00:00 28,4 11,9 34,4 21,2 18,2 13 7 22 12 ESE 1014,8 50 60 0,0
17.06.2019 14:00:00 27,5 12,7 33,1 20,7 18,2 14 7 22 12 E 1015,4 49 60 0,0
17.06.2019 13:00:00 26,5 13,6 32,5 20,2 18,2 12 7 21 12 ENE 1016,0 52 60 0,0
17.06.2019 12:00:00 24,9 13,8 30,4 20,0 18,1 9 5 21 11 E 1016,5 50 60 0,0
17.06.2019 11:00:00 23,5 13,9 26,8 20,0 18,1 8 4 18 10 E 1016,9 46 60 0,0
17.06.2019 10:00:00 21,2 13,6 24,1 20,1 18,2 10 5 16 8 E 1017,4 47 60 0,0
17.06.2019 09:00:00 19,0 13,2 19,9 20,2 18,1 3 1 6 3 E 1017,8 49 60 0,0
17.06.2019 08:00:00 15,2 12,7 11,6 20,5 18,1 0 0 6 4 N 1017,9 19 53 0,0
17.06.2019 07:00:00 11,1 9,8 8,3 20,8 18,1 4 2 6 3 ENE 1017,7 26 20 0,0
17.06.2019 06:00:00 10,5 9,4 8,3 21,1 18,1 2 1 6 3 NE 1017,6 39 0 0,0
17.06.2019 05:00:00 11,9 10,5 8,3 21,4 18,1 3 1 5 3 E 1017,6 25 0 0,0
17.06.2019 04:00:00 13,0 11,1 9,1 21,7 18,1 3 2 10 5 ENE 1018,0 27 0 0,0
17.06.2019 03:00:00 13,4 11,1 11,2 21,9 18,1 7 4 10 5 ENE 1018,1 24 0 0,0
17.06.2019 02:00:00 13,4 11,5 10,5 22,2 18,1 5 3 8 4 NE 1018,3 26 0 0,0
17.06.2019 01:00:00 14,8 11,8 11,8 22,5 18,2 5 3 8 5 NE 1018,6 33 0 0,0
17.06.2019 00:00:00 16,4 12,0 13,0 22,6 18,2 6 3 10 5 ENE 1018,7 37 0 0,0
16.06.2019 23:00:00 17,9 11,9 15,7 22,8 18,2 7 4 16 9 NE 1018,6 45 0 0,0
16.06.2019 22:00:00 20,0 12,0 18,2 22,7 18,2 10 5 16 8 NE 1018,2 47 17 0,0
16.06.2019 21:00:00 23,5 12,5 22,8 22,6 18,2 9 5 21 11 E 1018,1 52 60 0,0
16.06.2019 20:00:00 24,8 12,1 26,9 22,3 18,1 11 6 23 12 ESE 1018,0 52 60 0,0
16.06.2019 19:00:00 25,3 12,5 28,3 21,8 18,1 11 6 26 14 E 1018,1 52 60 0,0
16.06.2019 18:00:00 25,4 12,3 30,7 21,3 18,2 12 7 35 19 E 1018,3 36 60 0,0
16.06.2019 17:00:00 25,1 11,6 31,1 20,6 18,1 9 5 32 17 ENE 1018,7 29 60 0,0
16.06.2019 16:00:00 24,7 12,9 30,8 20,0 18,2 13 7 27 15 E 1019,5 29 60 0,0
16.06.2019 15:00:00 23,8 12,4 29,9 19,3 18,2 8 5 22 12 E 1020,1 28 60 0,0
16.06.2019 14:00:00 23,2 11,9 29,2 18,8 18,2 13 7 26 14 E 1020,8 27 60 0,0
16.06.2019 13:00:00 22,3 14,7 26,5 18,4 18,1 11 6 22 12 E 1021,5 26 58 0,0
16.06.2019 12:00:00 21,1 13,5 25,8 18,1 18,2 9 5 20 11 E 1022,1 22 60 0,0
16.06.2019 11:00:00 19,4 13,3 23,0 18,1 18,1 8 5 18 10 ESE 1022,5 20 60 0,0
16.06.2019 10:00:00 17,1 13,2 19,5 18,1 18,2 8 5 14 8 E 1022,9 20 60 0,0
16.06.2019 09:00:00 14,3 12,2 14,6 18,3 18,1 4 2 8 4 ESE 1023,1 18 57 0,0
16.06.2019 08:00:00 11,2 10,7 8,2 18,5 18,1 2 1 5 3 ENE 1023,0 11 46 0,0
16.06.2019 07:00:00 8,5 8,4 5,8 18,7 18,1 2 1 4 2 ENE 1023,0 17 20 0,0
16.06.2019 06:00:00 7,9 7,5 5,8 19,0 18,1 4 2 5 3 ENE 1023,0 12 0 0,0
16.06.2019 05:00:00 8,7 8,2 6,0 19,2 18,1 3 2 4 2 ENE 1022,6 17 0 0,0
16.06.2019 04:00:00 9,1 8,5 6,6 19,5 18,2 2 1 4 2 NNE 1022,8 19 0 0,0
16.06.2019 03:00:00 9,8 9,2 6,6 19,8 18,2 3 2 4 2 NE 1023,0 17 0 0,0
16.06.2019 02:00:00 10,9 10,1 7,0 20,0 18,2 0 0 2 1 N 1023,4 19 0 0,0
16.06.2019 01:00:00 11,6 10,2 7,5 20,2 18,2 0 0 6 3 N 1023,8 35 0 0,0
16.06.2019 00:00:00 12,4 10,5 8,4 20,4 18,2 2 1 6 3 NW 1023,6 47 0 0,0
15.06.2019 23:00:00 13,6 10,8 9,4 20,6 18,2 5 3 8 5 NNW 1023,3 35 0 0,0
15.06.2019 22:00:00 15,9 11,3 11,6 20,6 18,2 4 2 10 5 NW 1022,6 53 17 0,0
15.06.2019 21:00:00 19,1 11,1 18,4 20,5 18,2 7 4 16 9 NW 1022,1 58 60 0,0
15.06.2019 20:00:00 20,5 11,9 20,1 20,4 18,2 13 7 23 12 NW 1021,9 57 44 0,0
15.06.2019 19:00:00 20,5 10,6 22,0 20,1 18,2 14 8 21 11 NW 1021,5 52 35 0,0
15.06.2019 18:00:00 21,6 12,2 22,2 19,9 18,2 10 5 18 10 WNW 1021,3 44 53 0,0
15.06.2019 17:00:00 19,3 12,8 21,6 19,7 18,2 5 3 10 5 NNW 1021,4 44 0 0,0
15.06.2019 16:00:00 19,2 13,1 22,7 19,4 18,2 4 2 14 7 NW 1021,4 34 15 0,0
15.06.2019 15:00:00 18,2 12,4 20,7 19,1 18,2 9 5 19 10 W 1021,5 58 0 0,0
15.06.2019 14:00:00 17,7 12,6 18,7 18,9 18,2 8 4 16 9 SSW 1021,7 26 25 0,0
15.06.2019 13:00:00 16,3 12,3 18,5 18,8 18,2 4 2 14 8 SSE 1021,6 28 8 0,0
15.06.2019 12:00:00 15,2 13,0 14,3 18,8 18,2 5 3 11 6 S 1021,5 33 4 0,0
15.06.2019 11:00:00 13,9 11,8 13,9 18,9 18,2 3 1 12 6 S 1021,3 42 0 1,0
15.06.2019 10:00:00 - - - - - - - - - - - - - -
15.06.2019 09:00:00 13,6 12,5 13,3 19,1 18,2 8 4 11 6 W 1020,3 34 0 0,0
15.06.2019 08:00:00 13,5 12,4 12,6 19,3 18,2 5 3 20 11 W 1019,6 19 0 0,0
15.06.2019 07:00:00 13,7 13,1 13,4 19,4 18,2 8 5 17 9 WSW 1018,9 18 0 0,0
15.06.2019 06:00:00 13,8 13,0 13,5 19,6 18,3 11 6 15 8 W 1018,4 20 0 0,0
15.06.2019 05:00:00 14,1 13,3 13,7 19,7 18,2 8 4 11 6 WSW 1018,0 20 0 0,0
15.06.2019 04:00:00 14,2 13,4 13,8 19,8 18,2 2 1 9 5 W 1017,8 28 0 0,0
15.06.2019 03:00:00 14,1 13,3 13,8 20,0 18,2 5 3 20 11 W 1017,6 25 0 0,2
15.06.2019 02:00:00 14,3 13,7 13,8 20,1 18,2 13 7 19 11 W 1017,4 20 0 0,0
15.06.2019 01:00:00 14,3 13,7 13,7 20,2 18,2 14 8 22 12 W 1016,9 10 0 1,4
15.06.2019 00:00:00 14,7 13,6 14,0 20,4 18,2 10 5 19 10 WSW 1016,7 17 0 1,2
14.06.2019 23:00:00 16,0 13,3 15,6 20,4 18,2 9 5 15 8 W 1015,7 46 0 0,0
14.06.2019 22:00:00 16,7 14,2 16,3 20,5 18,1 8 4 18 10 WNW 1014,9 52 0 0,0
14.06.2019 21:00:00 17,0 14,3 16,7 20,5 18,1 12 7 18 10 WNW 1014,5 24 0 0,0
14.06.2019 20:00:00 18,3 14,6 18,5 20,4 18,2 5 3 9 5 S 1013,5 36 0 0,0
14.06.2019 19:00:00 18,5 13,6 19,4 20,3 18,2 3 2 9 5 NNW 1012,8 59 0 0,0
14.06.2019 18:00:00 19,0 13,0 20,9 20,3 18,2 3 2 16 9 NE 1012,8 56 14 0,0
14.06.2019 17:00:00 17,9 14,8 18,2 20,2 18,2 11 6 18 10 NNW 1012,6 53 0 0,0
14.06.2019 16:00:00 17,2 14,3 16,9 20,1 18,2 9 5 16 8 WNW 1012,8 47 0 0,2
14.06.2019 15:00:00 17,3 13,4 18,0 20,0 18,2 5 3 13 7 NNW 1013,1 41 0 0,0
14.06.2019 14:00:00 18,0 13,9 19,2 20,0 18,1 8 4 15 8 N 1013,0 60 0 0,0
14.06.2019 13:00:00 16,9 13,0 18,5 19,9 18,1 6 4 15 8 N 1013,2 50 0 0,0
14.06.2019 12:00:00 16,5 13,0 19,2 19,9 18,1 9 5 14 8 NNE 1013,6 56 0 0,0
14.06.2019 11:00:00 16,3 12,8 18,3 19,9 18,1 8 4 12 7 NW 1013,6 39 0 0,0
14.06.2019 10:00:00 15,5 12,8 15,7 20,0 18,1 3 2 10 5 WNW 1013,6 46 0 0,0
14.06.2019 09:00:00 14,7 12,6 14,8 20,2 18,1 4 2 10 6 NNW 1013,6 43 2 0,0
14.06.2019 08:00:00 14,2 12,8 13,2 20,4 18,1 6 3 12 7 WNW 1013,5 32 5 0,0
14.06.2019 07:00:00 13,5 12,4 13,2 20,6 18,1 9 5 12 6 W 1014,1 33 0 0,0
14.06.2019 06:00:00 13,8 12,5 13,7 20,8 18,1 6 4 12 6 WNW 1014,1 38 0 0,0
14.06.2019 05:00:00 14,0 12,4 13,8 21,0 18,1 8 4 16 9 W 1013,8 38 0 0,0
14.06.2019 04:00:00 14,1 12,3 13,9 21,2 18,1 8 5 18 10 W 1014,2 41 0 0,0
14.06.2019 03:00:00 14,1 12,1 13,9 21,4 18,1 11 6 22 12 W 1014,0 38 0 0,0
14.06.2019 02:00:00 14,3 11,8 14,0 21,6 18,1 16 8 28 15 WNW 1014,1 46 0 0,0
14.06.2019 01:00:00 14,1 12,3 13,5 21,8 18,1 14 8 35 19 W 1013,9 41 0 0,0
14.06.2019 00:00:00 14,7 12,9 14,7 22,0 18,1 19 10 31 17 W 1013,2 45 0 0,0
13.06.2019 23:00:00 15,2 13,2 15,1 22,1 18,1 20 11 32 17 W 1012,7 50 0 0,0
13.06.2019 22:00:00 17,2 13,1 16,9 22,1 18,1 17 9 39 21 WNW 1010,8 60 0 0,0
13.06.2019 21:00:00 23,2 14,7 22,3 21,9 18,1 4 2 10 6 WNW 1009,3 54 0 0,0
13.06.2019 20:00:00 24,3 13,5 24,2 21,7 18,2 4 2 23 12 SE 1008,9 60 3 0,0
13.06.2019 19:00:00 25,1 13,3 26,7 21,2 18,2 13 7 27 15 E 1008,6 60 54 0,0
13.06.2019 18:00:00 25,3 12,5 30,9 20,6 18,2 12 7 25 13 ENE 1009,2 60 60 0,0
13.06.2019 17:00:00 24,7 13,3 32,6 19,9 18,2 11 6 19 10 N 1009,8 60 60 0,0
13.06.2019 16:00:00 23,9 12,2 28,9 19,2 18,2 10 5 18 10 N 1010,6 60 50 0,0
13.06.2019 15:00:00 22,9 11,9 30,6 18,5 18,2 8 4 16 9 NNW 1011,0 60 60 0,0
13.06.2019 14:00:00 21,4 12,0 29,5 18,0 18,2 8 4 15 8 NNW 1011,6 20 60 0,0
13.06.2019 13:00:00 20,5 11,9 26,9 17,5 18,2 5 3 14 7 E 1012,0 60 60 0,0
13.06.2019 12:00:00 18,8 12,1 23,2 17,3 18,2 8 4 18 10 NNW 1012,4 19 57 0,0
13.06.2019 11:00:00 17,4 11,4 18,2 17,2 18,3 6 3 16 9 N 1012,7 60 44 0,0
13.06.2019 10:00:00 15,6 11,4 16,1 17,2 18,3 8 5 17 9 N 1012,8 60 33 0,0
13.06.2019 09:00:00 12,9 11,8 13,2 17,4 18,3 0 0 7 4 N 1013,1 20 38 0,0
13.06.2019 08:00:00 9,6 9,5 7,8 17,6 18,3 0 0 3 2 N 1013,0 19 29 0,0
13.06.2019 07:00:00 7,4 7,3 5,4 17,8 18,3 2 1 5 3 NNE 1013,3 16 0 0,0
13.06.2019 06:00:00 6,9 6,5 5,1 18,0 18,3 4 2 5 3 NE 1013,4 53 0 0,0
13.06.2019 05:00:00 7,9 7,5 5,4 18,2 18,3 2 1 5 3 NE 1013,5 46 0 0,0
13.06.2019 04:00:00 8,6 8,2 7,0 18,3 18,3 3 1 7 4 NE 1013,8 51 0 0,0
13.06.2019 03:00:00 9,8 9,0 9,2 18,6 18,3 3 2 4 2 ENE 1014,4 42 0 0,0
13.06.2019 02:00:00 10,2 9,7 7,3 18,8 18,3 3 1 5 3 ENE 1014,9 53 0 0,0
13.06.2019 01:00:00 9,5 9,0 6,6 18,9 18,3 0 0 9 5 N 1015,2 55 0 0,0
13.06.2019 00:00:00 10,5 9,1 6,9 19,1 18,3 4 2 8 4 ENE 1015,6 55 0 0,0
12.06.2019 23:00:00 12,3 9,8 8,1 19,2 18,4 3 1 10 5 SW 1015,5 60 0 0,0
12.06.2019 22:00:00 13,8 9,4 11,2 19,2 18,3 8 4 16 8 W 1015,3 60 3 0,0
12.06.2019 21:00:00 16,8 9,5 15,8 19,1 18,4 10 5 18 10 W 1014,8 60 60 0,0
12.06.2019 20:00:00 18,2 9,3 21,3 18,9 18,4 11 6 26 14 W 1014,9 43 60 0,0
12.06.2019 19:00:00 18,4 8,6 20,0 18,7 18,4 18 10 39 21 W 1014,2 26 60 0,0
12.06.2019 18:00:00 18,6 9,6 22,7 18,5 18,4 24 13 42 23 W 1014,2 13 60 0,0
12.06.2019 17:00:00 18,7 9,2 20,0 18,2 18,4 24 13 47 26 W 1014,6 9 55 0,0
12.06.2019 16:00:00 17,4 11,0 17,4 18,1 18,4 29 16 52 28 W 1015,0 9 27 0,0
12.06.2019 15:00:00 15,9 11,9 13,5 18,0 18,4 27 14 47 25 W 1015,3 9 11 0,0
12.06.2019 14:00:00 15,2 10,2 14,9 17,9 18,4 26 14 50 27 WSW 1015,2 20 2 0,0
12.06.2019 13:00:00 13,6 9,8 12,2 17,9 18,4 23 12 45 24 WSW 1015,2 18 0 0,0
12.06.2019 12:00:00 13,0 10,0 12,9 18,0 18,4 25 13 49 27 WSW 1014,9 20 2 0,2
12.06.2019 11:00:00 12,6 9,8 11,5 18,0 18,4 17 9 47 25 SW 1014,2 15 0 0,6
12.06.2019 10:00:00 12,9 8,8 11,7 18,1 18,4 21 11 43 23 SW 1013,9 20 2 0,0
12.06.2019 09:00:00 12,1 8,2 11,1 18,2 18,4 18 10 39 21 SW 1013,6 43 5 0,2
12.06.2019 08:00:00 11,8 9,5 10,9 18,3 18,4 17 9 32 17 SW 1013,1 40 0 0,0
12.06.2019 07:00:00 11,4 10,1 10,7 18,5 18,4 16 9 33 18 SSW 1013,1 15 0 0,2
12.06.2019 06:00:00 11,5 10,1 10,7 18,7 18,4 14 8 29 16 SW 1012,9 30 0 0,0
12.06.2019 05:00:00 11,6 9,8 11,0 18,9 18,5 16 9 26 14 SW 1012,8 38 0 0,0
12.06.2019 04:00:00 11,7 9,6 11,1 19,1 18,5 14 7 32 17 SW 1013,0 43 0 0,0
12.06.2019 03:00:00 11,7 9,9 11,3 19,3 18,5 13 7 25 14 SSW 1013,4 39 0 0,0
12.06.2019 02:00:00 12,0 9,9 11,4 19,5 18,4 13 7 22 12 SSW 1013,9 41 0 0,0
12.06.2019 01:00:00 12,1 9,3 11,1 19,7 18,5 17 9 39 21 WSW 1014,7 20 0 0,0
12.06.2019 00:00:00 12,3 10,0 11,4 19,9 18,5 11 6 20 11 SSW 1014,7 39 0 0,0
11.06.2019 23:00:00 12,5 9,7 11,9 20,1 18,5 10 5 23 12 SW 1015,2 20 0 0,0
11.06.2019 22:00:00 13,4 9,8 12,6 20,2 18,5 9 5 26 14 SW 1015,0 46 15 0,0
11.06.2019 21:00:00 13,6 9,4 13,2 20,3 18,5 15 8 41 22 WSW 1015,0 52 26 0,0
11.06.2019 20:00:00 14,4 8,1 14,2 20,3 18,5 31 17 45 24 W 1014,9 50 29 0,0
11.06.2019 19:00:00 16,6 8,5 16,4 20,2 18,5 22 12 39 21 W 1014,5 46 30 0,0
11.06.2019 18:00:00 16,3 8,8 13,4 20,1 18,5 24 13 48 26 W 1014,5 40 19 0,2
11.06.2019 17:00:00 15,7 9,1 16,2 19,9 18,5 32 17 51 27 W 1014,3 29 48 0,0
11.06.2019 16:00:00 15,8 11,6 12,4 19,7 18,5 20 11 42 23 W 1014,4 32 27 0,6

tt = Température de l'air
td = dewpoint
tt 5cm = Température de l'air 5cm
tt -20cm = Température de l'air -20cm
tt -100cm = Température de l'air -100cm
ff = Vitesse du vent
fx = gusts
dd = Direction du vent
ppp = reduced air pressure
vv = visibility
sd = Ensoleillement
rr = Quantités de précipitations

stations d'obs. à proximité